Salinas, CA

6:50 PM PDT on June 21, 2018 (GMT -0700)
Salinas Municipal

Weather History for KSNS - October, 2017

Change the Weather History Date:

Tuesday, October 10, 2017

  Actual Average Record
Temperature  
Mean Temperature 62 °F 62 °F  
Max Temperature 76 °F 74 °F 94 °F (1950)
Min Temperature 48 °F 51 °F 39 °F (1941)
Degree Days  
Heating Degree Days 3 4  
Month to date heating degree days 28 33  
Since 1 July heating degree days 149 228  
Cooling Degree Days 0 1  
Month to date cooling degree days 2 10  
Year to date cooling degree days 215 115  
Growing Degree Days 12 (Base 50)    
Moisture  
Dew Point 50 °F    
Average Humidity 60    
Maximum Humidity 93    
Minimum Humidity 27    
Precipitation  
Precipitation 0.00 in 0.01 in 0.63 in (1957)
Month to date precipitation 0.00 0.13  
Year to date precipitation 12.49 9.05  
Sea Level Pressure  
Sea Level Pressure 29.94 in    
Wind  
Wind Speed 9 mph (WNW)    
Max Wind Speed 18 mph    
Max Gust Speed 23 mph    
Visibility 8 miles    
Events      
T = Trace of Precipitation, MM = Missing Value Source: NWS Daily Summary

Daily Weather History Graph

Daily Weather History Graph

Search for Another Location

Airport or City:

Astronomy

Oct. 10, 2017 Rise Set
Actual Time 7:09 AM PDT 6:36 PM PDT
Civil Twilight 6:43 AM PDT 7:02 PM PDT
Nautical Twilight 6:13 AM PDT 7:32 PM PDT
Astronomical Twilight 5:43 AM PDT 8:02 PM PDT
Moon 10:51 PM PDT (10/10) 12:25 PM PDT (10/10)
Length of Visible Light 12h 18m
Length of Day
11h 26m
Waning Gibbous, 70% of the Moon is Illuminated
Oct 10
Waning Gibbous
Oct 12
Last Quarter
Oct 19
New
Oct 27
First Quarter
Nov 3
Full

Hourly Weather History & Observations

Time (PDT) Temp. Dew Point Humidity Pressure Visibility Wind Dir Wind Speed Gust Speed Precip Events Conditions
12:53 AM 52.0 °F 48.0 °F 86% 29.96 in 9.0 mi ESE 4.6 mph - N/A   Clear
1:53 AM 53.1 °F 48.0 °F 83% 29.97 in 9.0 mi ESE 4.6 mph - N/A   Clear
2:53 AM 52.0 °F 46.9 °F 83% 29.96 in 9.0 mi Calm Calm - N/A   Clear
3:53 AM 52.0 °F 45.0 °F 77% 29.94 in 10.0 mi East 8.1 mph - N/A   Clear
4:53 AM 48.9 °F 44.1 °F 83% 29.94 in 10.0 mi East 8.1 mph - N/A   Clear
5:53 AM 51.1 °F 43.0 °F 74% 29.94 in 10.0 mi ESE 4.6 mph - N/A   Clear
6:53 AM 51.1 °F 39.9 °F 66% 29.96 in 10.0 mi SE 4.6 mph - N/A   Clear
7:53 AM 50.0 °F 42.1 °F 74% 29.96 in 7.0 mi East 5.8 mph - N/A   Clear
8:53 AM 57.0 °F 43.0 °F 59% 29.95 in 7.0 mi ESE 17.3 mph - N/A   Clear
9:53 AM 64.9 °F 43.0 °F 45% 29.96 in 8.0 mi ESE 13.8 mph - N/A   Clear
10:53 AM 73.0 °F 37.0 °F 27% 29.95 in 9.0 mi ESE 9.2 mph - N/A   Clear
11:53 AM 75.9 °F 39.0 °F 26% 29.95 in 10.0 mi WSW 9.2 mph - N/A   Clear
12:53 PM 73.0 °F 52.0 °F 48% 29.94 in 9.0 mi WNW 13.8 mph - N/A   Clear
1:12 PM 72.0 °F 53.1 °F 51% 29.91 in 3.0 mi West 12.7 mph - N/A   Haze
1:53 PM 68.0 °F 53.1 °F 59% 29.93 in 7.0 mi WNW 16.1 mph - N/A   Clear
2:53 PM 64.9 °F 52.0 °F 63% 29.93 in 9.0 mi WNW 15.0 mph - N/A   Clear
3:12 PM 64.9 °F 54.0 °F 68% 29.90 in 6.0 mi WNW 13.8 mph - N/A   Haze
3:53 PM 63.0 °F 55.0 °F 75% 29.94 in 8.0 mi West 12.7 mph - N/A   Partly Cloudy
4:18 PM 64.0 °F 55.0 °F 73% 29.91 in 8.0 mi WNW 13.8 mph - N/A   Mostly Cloudy
4:53 PM 62.1 °F 55.0 °F 78% 29.94 in 8.0 mi WNW 12.7 mph - N/A   Overcast
5:53 PM 61.0 °F 55.0 °F 81% 29.94 in 8.0 mi NW 10.4 mph - N/A   Overcast
6:18 PM 60.1 °F 55.0 °F 83% 29.91 in 8.0 mi NW 10.4 mph - N/A   Overcast
6:53 PM 59.0 °F 55.0 °F 87% 29.94 in 7.0 mi NW 9.2 mph - N/A   Overcast
7:31 PM 59.0 °F 55.0 °F 87% 29.92 in 7.0 mi West 5.8 mph - N/A   Scattered Clouds
7:53 PM 59.0 °F 55.0 °F 87% 29.95 in 8.0 mi West 6.9 mph - N/A   Mostly Cloudy
8:53 PM 57.0 °F 54.0 °F 89% 29.95 in 6.0 mi WNW 5.8 mph - N/A   Overcast
9:53 PM 57.0 °F 54.0 °F 89% 29.96 in 5.0 mi WNW 5.8 mph - N/A   Overcast
10:53 PM 55.9 °F 54.0 °F 93% 29.97 in 4.0 mi NW 8.1 mph - N/A   Overcast
11:53 PM 55.0 °F 54.0 °F 96% 29.97 in 4.0 mi WNW 6.9 mph - N/A   Overcast